Notices

What's New in latest Release from April 7th, 2021:

- Updated Glossary, including Speed of Maximum Gust, and Total Hourly Precipitation

- Updated national and regional climate services offices contacts and prices information

- Addition of station inventory lists for 1981-2010, 1971-2000, and 1961-1990 Normals.

If you haven't already, please take our survey and provide feedback about our website: https://eccc.sondage-survey.ca/f/LanguageSelection.aspx?s=442ca660-fcf1-47c0-95a9-59707d6fd709

Hourly Data Report for September 14, 2019

QUALICUM BEACH AIRPORT
BRITISH COLUMBIA
Current Station Operator: ECCC - MSC

49°20'14.000" N
124°23'38.000" W
58.20 m
1026562
71766
VOQ

Download Data

Hourly Data (September 2019)
Hourly Data Report for September 14, 2019
TIME
LST
Temp Definition
°C
Dew Point Definition
°C
Rel Hum Definition
%
Precip. Amount Definition
mm

Wind Dir Definition
10's deg

Wind Spd Definition
km/h
Visibility Definition
km
Stn Press Definition
kPa
Hmdx Definition


Wind Chill Definition


Weather Definition


00:00 13.3 12.0 92 0.0 14 1   100.89     LegendNANA
01:00 13.1 12.3 95 0.0 16 3   100.85     LegendNANA
02:00 13.1 12.3 95 0.0 29 3   100.79     LegendNANA
03:00 12.9 12.2 96 0.0 24 2   100.79     LegendNANA
04:00 13.1 11.9 93 0.0 13 9   100.66     LegendNANA
05:00 13.1 12.0 93 0.0 21 1   100.62     LegendNANA
06:00 13.0 12.2 95 0.0 10 9   100.58     LegendNANA
07:00 13.2 12.3 94 0.0 12 9   100.52     LegendNANA
08:00 13.7 12.5 93 0.0 12 16   100.47     LegendNANA
09:00 14.9 12.9 87 0.0 13 16   100.40     LegendNANA
10:00 15.4 13.2 86 0.0 11 14   100.34     LegendNANA
11:00 17.9 13.6 76 0.0 13 21   100.24     LegendNANA
12:00 18.2 13.6 75 0.0 13 24   100.16     LegendNANA
13:00 16.8 14.5 86 0.0 13 20   100.12     LegendNANA
14:00 16.2 14.8 92 0.7 12 12   100.08     LegendNANA
15:00 16.1 14.8 92 0.8 11 9   100.04     LegendNANA
16:00 16.3 15.3 94 1.2 14 12   100.02     LegendNANA
17:00 15.7 14.9 95 0.3 13 5   100.01     LegendNANA
18:00 15.4 14.6 95 0.1 8 5   99.95     LegendNANA
19:00 13.2 12.5 96 0.0 4 5   99.95     LegendNANA
20:00 13.1 12.6 97 0.0 31 7   99.95     LegendNANA
21:00 13.2 12.8 97 0.0 28 1   99.90     LegendNANA
22:00 13.2 12.8 97 0.0 24 2   99.88     LegendNANA
23:00 13.5 13.2 98 0.0 29 6   99.85     LegendNANA

Notes on Data Quality.

Legend

  • E = Estimated
  • M = Missing
  • NA = Not Available*
  • [empty] = Indicates an unobserved value
Date modified: